Melbourne, FL

2:19 AM EDT on July 24, 2017 (GMT -0400)
Melbourne International

Weather History for KMLB - May, 2013

Change the Weather History Date:

Thursday, May 2, 2013

  Actual Average Record
Temperature  
Mean Temperature 72 °F 74 °F  
Max Temperature 77 °F 83 °F 95 °F (2002)
Min Temperature 67 °F 64 °F 51 °F (1999)
Degree Days  
Heating Degree Days 0 0  
Month to date heating degree days 0 0  
Since 1 July heating degree days 463 576  
Cooling Degree Days 7 9  
Month to date cooling degree days 15 17  
Year to date cooling degree days 549 392  
Growing Degree Days 20 (Base 50)    
Moisture  
Dew Point 67 °F    
Average Humidity 87    
Maximum Humidity 100    
Minimum Humidity 74    
Precipitation  
Precipitation 0.93 in 0.06 in 1.30 in (1960)
Month to date precipitation 1.50 0.12  
Year to date precipitation 10.44 10.33  
Sea Level Pressure  
Sea Level Pressure 29.91 in    
Wind  
Wind Speed 11 mph (SE)    
Max Wind Speed 23 mph    
Max Gust Speed 31 mph    
Visibility 8 miles    
Events Rain    
T = Trace of Precipitation, MM = Missing Value Source: NWS Daily Summary

Daily Weather History Graph

Daily Weather History Graph

Search for Another Location

Airport or City:

Trip Planner

Search our weather history database for the weather conditions in past years. The results will help you decide how hot, cold, wet, or windy it might be!

Date:

Astronomy

May. 02, 2013 Rise Set
Actual Time 6:41 AM EDT 7:57 PM EDT
Civil Twilight 6:16 AM EDT 8:22 PM EDT
Nautical Twilight 5:47 AM EDT 8:52 PM EDT
Astronomical Twilight 5:16 AM EDT 9:23 PM EDT
Moon 1:50 AM EDT (5/2) 1:21 PM EDT (5/2)
Length of Visible Light 14h 06m
Length of Day
13h 16m
Waning Gibbous, 48% of the Moon is Illuminated
May 2
Waning Gibbous
May 9
New
May 18
First Quarter
May 25
Full
May 31
Last Quarter

Hourly Weather History & Observations

Time (EDT) Temp. Dew Point Humidity Pressure Visibility Wind Dir Wind Speed Gust Speed Precip Events Conditions
12:53 AM 71.1 °F 64.0 °F 78% 29.98 in 5.0 mi East 5.8 mph - 0.03 in Rain Rain
1:53 AM 66.9 °F 62.1 °F 84% 29.95 in 7.0 mi NNW 5.8 mph - 0.07 in Rain Light Rain
2:53 AM 69.1 °F 64.9 °F 87% 29.92 in 7.0 mi East 10.4 mph - 0.04 in Rain Light Rain
3:53 AM 70.0 °F 64.0 °F 81% 29.92 in 10.0 mi East 6.9 mph - 0.01 in Rain Light Rain
4:53 AM 70.0 °F 66.0 °F 87% 29.93 in 5.0 mi SE 3.5 mph - 0.11 in Rain Heavy Rain
5:06 AM 68.0 °F 66.2 °F 94% 29.93 in 2.0 mi Calm Calm - 0.07 in Rain Rain
5:15 AM 68.0 °F 66.2 °F 94% 29.93 in 3.0 mi WNW 4.6 mph - 0.09 in Rain Rain
5:53 AM 66.9 °F 66.0 °F 97% 29.96 in 2.5 mi SW 8.1 mph - 0.18 in Rain Heavy Rain
6:04 AM 66.2 °F 66.2 °F 100% 29.94 in 1.5 mi Calm Calm - 0.13 in Rain Heavy Rain
6:18 AM 68.0 °F 64.4 °F 88% 29.93 in 2.0 mi East 13.8 mph - 0.29 in Rain Heavy Rain
6:28 AM 68.0 °F 64.4 °F 88% 29.94 in 3.0 mi SE 10.4 mph - 0.34 in Rain Heavy Rain
6:43 AM 68.0 °F 64.4 °F 88% 29.93 in 2.5 mi East 16.1 mph - 0.43 in Rain Heavy Rain
6:53 AM 68.0 °F 64.9 °F 90% 29.93 in 2.0 mi East 12.7 mph - 0.52 in Rain Heavy Rain
7:17 AM 66.2 °F 66.2 °F 100% 29.94 in 2.0 mi East 10.4 mph - 0.01 in Rain Light Rain
7:53 AM 68.0 °F 64.9 °F 90% 29.94 in 9.0 mi East 15.0 mph - 0.01 in Rain Light Rain
8:53 AM 72.0 °F 66.9 °F 84% 29.95 in 10.0 mi East 13.8 mph - 0.00 in   Overcast
9:05 AM 71.6 °F 66.2 °F 83% 29.95 in 10.0 mi East 15.0 mph - N/A   Mostly Cloudy
9:27 AM 71.6 °F 66.2 °F 83% 29.96 in 10.0 mi East 10.4 mph - N/A   Overcast
9:53 AM 73.9 °F 69.1 °F 85% 29.95 in 9.0 mi ESE 12.7 mph - 0.00 in Rain Light Rain
10:53 AM 75.0 °F 68.0 °F 79% 29.94 in 10.0 mi ESE 16.1 mph 26.5 mph 0.00 in   Mostly Cloudy
11:53 AM 75.0 °F 68.0 °F 79% 29.93 in 10.0 mi ESE 18.4 mph - N/A   Mostly Cloudy
12:53 PM 75.9 °F 69.1 °F 79% 29.91 in 10.0 mi SE 12.7 mph 23.0 mph N/A   Mostly Cloudy
1:30 PM 75.2 °F 69.8 °F 83% 29.91 in 10.0 mi SE 13.8 mph 24.2 mph N/A   Mostly Cloudy
1:53 PM 75.0 °F 69.1 °F 82% 29.90 in 10.0 mi ESE 13.8 mph 23.0 mph N/A   Mostly Cloudy
2:53 PM 75.0 °F 68.0 °F 79% 29.88 in 10.0 mi SSE 17.3 mph 26.5 mph N/A   Partly Cloudy
3:53 PM 75.0 °F 68.0 °F 79% 29.87 in 10.0 mi SE 15.0 mph 21.9 mph N/A   Partly Cloudy
4:02 PM 75.2 °F 68.0 °F 78% 29.87 in 10.0 mi SSE 13.8 mph - N/A   Mostly Cloudy
4:53 PM 75.0 °F 66.9 °F 76% 29.86 in 10.0 mi SSE 15.0 mph - N/A   Mostly Cloudy
5:53 PM 73.0 °F 66.9 °F 81% 29.85 in 10.0 mi SSE 13.8 mph - N/A   Scattered Clouds
6:53 PM 73.0 °F 66.9 °F 81% 29.84 in 10.0 mi SSE 5.8 mph - N/A   Scattered Clouds
7:53 PM 73.0 °F 68.0 °F 84% 29.85 in 10.0 mi South 5.8 mph - N/A   Overcast
8:53 PM 72.0 °F 66.9 °F 84% 29.86 in 10.0 mi SSE 8.1 mph - N/A   Mostly Cloudy
9:53 PM 72.0 °F 66.9 °F 84% 29.86 in 10.0 mi South 5.8 mph - N/A   Scattered Clouds
10:40 PM 71.6 °F 68.0 °F 88% 29.86 in 10.0 mi SSE 5.8 mph - N/A   Mostly Cloudy
10:53 PM 71.1 °F 66.9 °F 87% 29.86 in 10.0 mi South 5.8 mph - N/A   Scattered Clouds
11:53 PM 71.1 °F 66.9 °F 87% 29.86 in 10.0 mi South 4.6 mph - 0.00 in   Mostly Cloudy